Temp
21 20 20 19 19 19 19 19 19 19 19 19 19 19 20 19 20 20 20 20 20 20
22 22 21 20 19 19 19 19 19 19 19 19 19 19 19 20 20 20 20 20 20 20
23 22 22 21 20 20 19 19 19 19 19 19 18 18 19 19 19 20 20 20 20 20
22 22 22 22 21 20 19 19 19 18 18 19 19 19 18 19 19 19 20 19 19 20
20 22 21 21 22 21 20 19 19 19 19 18 19 18 19 18 19 19 19 19 19 19
19 20 21 21 21 21 20 20 19 19 19 19 19 19 18 19 18 19 18 19 19 19
20 21 22 22 22 21 21 20 20 19 19 19 19 19 19 19 18 18 18 18 18 18
20 21 21 21 22 22 21 21 21 20 19 19 19 19 19 18 18 18 18 18 18 19
20 19 20 21 21 21 22 21 21 20 20 20 19 19 19 18 18 18 18 18 19 19
19 19 19 20 20 21 21 21 21 21 20 20 20 20 20 19 18 18 18 18 19 19
18 18 18 18 18 18 18 19 19 21 21 20 20 19 19 19 19 18 18 18 18 19
18 18 18 18 17 17 17 18 18 17 18 19 18 18 17 17 17 19 18 18 18 18
17 18 18 18 17 17 17 17 17 16 17 16 17 18 18 18 17 17 18 18 18 19
17 17 17 17 17 17 16 16 17 18 19 18 19 22 22 20 19 17 17 18 19 19
Height
1537 1540 1543 1544 1545 1545 1547 1549 1553 1555 1556 1557 1558 1560 1562 1564 1567 1569 1570 1571 1573 1574
1531 1533 1536 1539 1541 1541 1543 1546 1548 1551 1552 1554 1555 1557 1559 1560 1563 1565 1567 1567 1569 1570
1523 1528 1531 1533 1536 1537 1538 1540 1542 1546 1547 1549 1550 1552 1555 1556 1559 1560 1562 1564 1565 1566
1521 1522 1525 1527 1529 1532 1534 1535 1536 1539 1542 1544 1546 1547 1550 1552 1555 1557 1558 1559 1561 1562
1527 1522 1521 1523 1524 1526 1527 1530 1531 1532 1535 1538 1539 1543 1546 1547 1549 1551 1553 1555 1556 1558
1519 1524 1519 1518 1518 1520 1522 1523 1525 1527 1528 1531 1534 1537 1540 1542 1543 1545 1547 1550 1551 1552
1509 1515 1515 1514 1512 1514 1516 1517 1517 1519 1521 1524 1527 1530 1533 1535 1537 1539 1540 1542 1545 1546
1502 1507 1506 1510 1511 1510 1510 1509 1508 1511 1513 1516 1518 1521 1524 1526 1528 1530 1533 1535 1537 1539
1491 1498 1500 1498 1502 1502 1500 1501 1500 1502 1504 1507 1509 1511 1515 1519 1521 1523 1525 1527 1529 1532
1494 1493 1492 1490 1491 1490 1487 1490 1492 1496 1497 1499 1501 1505 1510 1514 1516 1518 1519 1521 1523 1526
1492 1489 1485 1483 1484 1480 1474 1483 1486 1484 1488 1493 1495 1499 1502 1506 1509 1511 1513 1514 1517 1520
1487 1484 1481 1479 1479 1476 1475 1470 1469 1469 1467 1482 1491 1494 1494 1498 1502 1503 1505 1508 1510 1513
1481 1479 1477 1475 1473 1471 1469 1469 1466 1461 1451 1467 1482 1489 1487 1491 1494 1495 1498 1499 1501 1505
1477 1474 1472 1471 1471 1469 1468 1467 1467 1465 1463 1460 1469 1474 1474 1476 1485 1486 1490 1491 1491 1494
Wind_Speed
22 25 26 24 25 27 28 26 22 24 22 24 20 20 19 20 21 17 16 17 16 13
23 24 24 24 23 28 27 27 27 26 25 25 26 25 22 21 23 20 20 21 21 19
24 26 24 24 26 26 29 31 29 28 27 27 27 29 28 26 24 25 23 23 21 19
25 26 29 26 26 28 25 24 30 32 30 27 28 28 29 29 27 26 27 26 23 21
31 30 30 31 28 27 27 25 21 24 33 32 24 27 29 29 29 30 28 29 27 26
30 32 32 32 31 29 29 28 25 24 30 32 30 27 30 31 30 30 31 29 29 30
34 34 32 27 26 27 27 29 28 27 28 32 32 33 29 31 30 31 30 30 33 31
37 36 35 32 26 25 27 27 29 30 28 29 33 33 32 31 31 31 31 32 33 35
12 18 38 37 36 32 30 29 27 31 31 30 30 30 31 31 31 31 30 32 31 33
16 21 21 25 35 40 41 34 32 31 31 30 29 27 27 29 30 30 31 33 32 32
23 21 22 19 18 23 30 33 34 33 31 30 28 25 26 24 28 30 31 33 35 32
31 29 28 25 24 23 23 23 34 37 30 24 26 28 25 22 30 34 34 33 34 33
31 32 32 29 27 23 21 16 18 21 15 30 39 35 27 31 33 35 40 37 37 35
28 32 34 34 28 24 19 17 18 20 23 23 30 33 46 31 33 33 39 44 44 41
Wind_Direction
231 228 230 231 236 234 227 226 230 227 226 229 227 228 224 226 226 222 231 231 234 239
231 226 228 229 235 234 235 234 233 229 226 232 230 230 228 229 230 236 234 232 234 237
234 237 235 232 235 236 236 240 239 232 227 225 232 233 234 235 233 232 233 229 227 234
241 241 240 239 237 237 239 238 238 237 236 233 227 231 234 236 233 232 232 230 233 233
258 253 249 244 240 236 236 230 234 236 235 235 241 237 235 239 241 236 236 233 235 237
260 260 259 250 245 240 237 234 232 236 229 230 234 236 236 240 243 241 240 236 236 239
256 254 256 257 250 244 242 238 234 231 230 229 235 237 240 239 242 246 243 238 240 240
260 251 254 253 252 250 247 245 240 235 233 234 235 239 240 243 247 251 249 243 241 241
263 271 259 260 252 249 247 246 244 238 236 236 238 239 242 246 249 249 246 243 244 236
319 288 277 256 256 253 252 246 242 244 241 240 243 247 250 250 249 249 247 245 242 239
315 316 317 306 285 267 259 254 254 245 244 246 248 253 259 259 253 254 253 249 246 246
311 312 309 315 324 310 297 262 246 264 234 237 248 250 244 260 264 259 255 253 247 242
303 306 309 313 315 317 321 302 261 264 284 313 279 271 263 280 280 257 258 253 247 241
291 297 301 304 308 312 308 297 285 281 270 256 255 255 274 259 273 263 260 258 251 244